Theta_e
275 277 278 279 280 282 284 287 289 292 296 299 300 300 300 301 301 301 300 299 299 298 298 296 296 295 295 295 294 292 291 293 294 288 289 288 289 290 290 291 290 290 290
276 276 277 278 279 280 281 284 287 289 291 295 297 297 298 298 298 298 297 298 297 296 296 295 294 293 294 294 293 292 292 291 292 288 286 287 288 289 290 290 288 288 289
275 275 276 276 277 278 279 281 284 287 289 290 293 295 296 296 295 296 297 296 296 297 296 294 294 292 292 292 292 291 291 288 289 289 286 286 286 287 287 287 288 288 287
274 274 274 275 276 277 278 279 281 283 285 287 289 291 294 294 294 294 294 294 294 295 295 295 294 292 292 291 291 291 290 289 288 288 285 285 286 284 286 287 286 285 285
272 272 272 274 276 276 277 278 279 281 282 283 286 288 289 291 292 292 292 293 292 292 292 293 294 291 291 291 291 291 290 289 288 287 285 283 283 283 285 285 286 283 280
270 271 271 272 274 274 275 276 277 278 280 281 281 283 285 287 291 291 292 291 290 290 289 290 291 287 289 291 291 292 291 289 287 287 286 286 284 285 284 284 284 283 286
270 270 270 271 271 273 273 274 274 275 277 279 280 280 280 283 288 290 290 290 289 287 288 288 287 288 287 290 291 291 290 292 292 289 287 286 285 285 283 280 282 285 285
269 269 269 269 270 271 271 271 272 274 275 276 278 278 279 280 286 287 288 287 287 286 286 287 287 287 287 287 288 287 288 289 289 289 290 288 289 285 286 285 283 279 274
267 267 267 268 268 269 269 270 271 271 273 274 276 277 277 277 284 286 284 285 285 285 285 285 286 286 288 289 287 287 287 287 289 290 289 289 288 287 283 282 280 283 279
265 265 266 266 267 267 268 268 270 270 271 273 274 276 277 276 280 284 284 282 282 284 285 285 284 286 288 290 287 287 285 286 286 286 286 288 287 286 285 285 282 283 279
265 265 265 265 265 267 267 268 268 268 269 270 271 274 275 275 276 282 283 281 280 281 282 283 285 286 288 289 290 287 287 286 287 286 285 284 283 284 281 281 282 282 279
263 262 263 263 264 266 264 265 266 267 267 268 269 271 273 273 275 279 280 281 282 279 279 281 283 288 287 289 289 289 290 288 286 285 283 282 282 281 278 277 275 274 275
259 259 259 261 262 263 263 263 263 264 265 266 267 268 269 271 273 276 277 279 279 278 280 281 283 286 288 288 290 290 287 286 285 284 283 283 283 281 274 272 271 271 271
255 257 259 259 260 261 262 262 262 262 263 264 266 267 268 269 270 273 275 276 277 278 279 279 281 285 287 287 285 288 285 285 284 284 285 284 279 276 275 274 273 273 274
257 256 257 259 259 259 260 260 262 263 264 265 266 267 266 266 269 273 274 274 275 277 278 278 278 280 283 284 284 285 283 283 283 283 282 279 279 278 276 275 274 273 274
256 258 258 258 258 258 258 258 262 264 266 267 268 268 268 269 271 272 274 275 276 277 275 273 275 278 281 282 283 284 282 282 282 281 280 280 279 278 276 275 274 274 274
255 256 256 256 256 256 256 256 255 258 262 263 265 266 267 268 269 270 271 273 274 274 270 271 272 274 276 277 282 284 282 282 282 281 280 279 279 278 276 275 275 275 273
250 253 254 254 254 255 255 255 255 253 253 254 259 261 264 266 266 268 269 269 264 266 266 267 268 271 273 273 275 277 283 283 282 281 280 279 279 277 276 276 275 275 274
251 252 253 253 253 253 253 253 253 252 252 252 253 256 258 261 263 265 265 259 259 261 263 264 265 266 268 270 272 273 274 283 283 282 281 280 279 278 277 277 276 275 274
247 249 251 250 251 250 251 251 251 251 251 251 252 252 253 252 252 255 256 256 258 259 260 261 262 263 264 265 267 270 273 274 283 283 282 281 279 279 278 277 276 275 274
248 249 250 250 249 250 249 249 250 250 250 250 251 254 260 260 258 255 255 255 255 256 257 259 259 260 261 263 264 266 268 270 272 282 282 281 280 279 279 278 277 277 275
247 249 248 247 250 250 250 250 250 250 250 250 252 253 259 255 253 253 254 254 255 255 256 256 257 258 259 260 262 263 265 267 271 272 280 281 280 280 279 278 277 276 275
249 249 249 249 250 250 250 250 250 250 251 251 251 252 252 252 251 251 252 253 254 254 255 254 255 256 258 259 261 263 264 266 268 269 270 272 280 280 279 278 277 276 275
247 248 249 249 249 250 250 250 251 251 251 251 251 251 252 252 252 252 252 253 253 253 254 254 254 255 256 257 260 261 262 262 264 265 266 267 269 280 279 278 277 276 275
245 246 247 248 249 249 250 250 250 250 250 251 251 251 252 252 252 252 253 253 252 253 253 253 254 254 254 254 256 257 258 261 261 262 264 265 267 269 279 278 277 276 275
247 248 249 250 250 250 249 250 251 251 251 252 252 252 252 252 252 252 252 252 252 252 252 253 254 253 254 254 254 255 257 260 260 261 263 264 266 270 276 278 277 276 275
Wind_Speed
19 19 19 18 18 17 15 15 14 12 9 1 3 5 8 10 10 10 9 9 11 11 10 11 13 9 9 8 5 4 4 4 4 2 1 2 6 8 7 6 5 5 3
17 17 18 18 18 18 18 18 17 14 12 9 2 3 4 6 8 9 10 10 12 11 12 11 12 7 10 9 8 9 7 5 4 5 3 3 3 6 7 8 5 4 3
16 17 18 19 20 19 19 19 17 16 14 12 9 4 2 3 5 7 9 9 10 11 12 12 12 11 10 8 9 9 7 5 3 4 5 2 2 3 3 3 3 3 3
16 16 17 19 19 18 18 19 19 17 17 15 12 10 6 2 2 4 5 6 7 8 9 11 11 12 12 11 10 11 9 8 5 4 3 3 2 2 1 3 3 3 3
14 15 16 17 17 18 19 19 18 18 16 16 14 13 11 9 6 4 4 6 7 7 6 8 9 10 13 13 10 10 12 9 7 5 4 4 4 4 5 4 3 2 1
13 13 15 15 17 17 18 18 18 18 18 16 16 15 14 10 18 12 5 4 5 7 7 7 7 8 10 15 17 17 18 15 12 7 4 4 5 4 4 5 4 3 3
11 12 14 15 15 16 16 17 17 17 17 17 16 15 13 13 26 20 9 4 4 5 6 6 5 5 8 9 15 16 18 20 19 14 11 6 7 9 9 6 4 3 3
10 12 13 14 14 14 14 15 15 14 13 13 14 15 13 12 27 26 16 3 3 4 5 5 5 6 7 8 8 9 10 11 9 8 10 8 4 10 7 5 7 6 3
8 11 12 14 14 13 14 13 12 12 12 11 11 13 14 13 27 28 18 10 4 3 3 3 5 5 9 15 10 10 9 8 4 8 7 12 13 18 14 9 5 4 2
7 9 10 11 12 12 12 12 11 10 10 9 10 10 12 13 23 27 22 9 10 6 4 3 5 5 9 16 10 10 10 9 9 7 5 8 13 14 19 2 8 4 3
3 7 9 9 10 10 11 10 11 10 9 9 9 9 9 12 15 24 25 10 10 8 7 7 4 7 9 13 16 9 11 9 12 8 7 7 6 7 4 3 4 3 4
4 7 8 8 8 8 10 10 10 10 9 9 9 7 6 9 15 18 23 22 19 9 8 8 8 12 8 10 12 13 14 15 9 8 8 8 8 6 5 5 6 6 4
4 6 7 8 8 8 9 8 7 8 7 8 7 7 8 8 8 17 20 22 19 11 8 15 20 17 9 6 11 13 11 8 9 9 10 8 7 7 9 7 7 8 8
5 6 6 6 8 7 6 6 7 6 6 7 7 8 8 8 8 8 9 10 14 12 15 11 15 15 7 4 2 7 6 6 8 9 9 7 8 8 7 5 5 5 4
5 5 5 5 6 7 7 7 7 7 8 8 7 8 9 8 8 17 15 10 9 12 14 9 7 7 5 2 1 4 6 6 6 5 7 8 7 9 7 7 5 6 3
7 5 5 5 5 6 7 7 11 13 15 16 17 13 9 17 21 21 21 20 19 19 8 7 8 6 7 4 2 3 4 7 6 6 7 8 9 9 8 8 5 6 5
6 7 5 5 6 6 6 7 8 8 14 14 15 17 17 18 20 20 20 20 19 16 6 6 7 7 6 7 5 2 3 5 8 7 7 8 8 8 11 8 7 7 5
4 6 6 5 5 5 6 7 6 6 8 7 10 14 16 17 18 19 19 17 7 6 6 6 6 6 7 6 6 7 2 4 6 7 8 8 8 9 9 9 9 9 8
4 4 4 4 5 6 6 6 6 7 7 8 8 9 8 15 17 15 13 3 5 6 6 6 6 6 7 7 6 7 8 3 5 6 7 8 8 9 9 8 8 11 9
4 8 6 4 5 4 5 6 6 6 7 7 7 7 3 4 4 5 4 4 4 6 6 6 6 6 6 7 7 7 7 8 3 5 6 7 8 9 9 9 9 11 9
4 4 7 5 5 5 5 6 6 6 7 7 9 8 16 10 6 3 4 5 6 6 6 5 6 6 6 6 6 6 7 7 7 4 6 6 7 7 8 8 9 9 9
4 5 4 5 5 6 6 6 6 7 7 8 9 9 17 7 6 7 7 7 6 6 5 6 6 6 6 5 6 6 7 7 7 5 5 6 7 7 8 8 9 10 10
5 5 5 6 6 8 7 7 7 7 8 8 9 9 7 6 6 7 8 7 7 7 6 5 7 7 6 6 6 6 7 6 6 7 6 8 6 7 7 8 9 10 10
4 5 6 6 6 7 7 8 7 9 9 9 9 9 9 8 8 8 8 7 7 7 7 7 7 9 7 6 6 5 6 6 6 6 8 8 8 6 7 8 9 10 10
4 5 6 7 7 7 7 8 8 8 9 9 9 9 9 9 10 9 8 7 7 7 8 7 7 10 10 11 10 10 9 11 10 9 5 8 10 12 7 8 9 10 11
5 6 7 6 7 7 7 8 9 8 9 9 9 9 9 9 10 10 9 8 7 7 9 7 9 13 14 10 9 11 12 13 11 12 8 7 8 8 8 9 13 9 12
Wind_Direction
351 353 346 355 357 352 353 356 356 356 349 64 180 184 188 188 182 181 178 178 187 189 191 197 206 181 188 185 165 150 161 146 171 116 118 149 175 176 175 191 194 204 220
348 354 352 355 0 0 357 354 359 3 1 1 353 173 174 183 178 175 170 177 186 186 193 191 203 187 197 188 178 185 181 172 140 154 142 152 183 187 184 197 205 208 228
349 356 356 357 1 0 358 356 359 1 8 10 4 337 227 180 176 186 187 181 190 192 192 196 200 193 200 185 182 183 181 168 161 137 145 155 110 158 165 200 192 203 231
345 356 0 356 358 358 357 360 1 3 5 10 9 7 360 311 218 187 184 186 193 198 196 199 199 195 201 189 188 188 173 176 158 144 131 131 135 146 164 164 190 201 208
345 351 355 352 357 359 360 1 360 4 7 8 9 17 18 31 360 285 214 205 196 199 199 206 205 199 200 192 188 185 178 175 171 167 135 140 163 167 191 159 171 147 143
349 356 351 352 355 3 357 358 1 1 4 9 11 11 22 16 360 351 261 219 204 200 205 207 208 199 207 194 195 192 188 177 181 170 153 169 181 164 143 161 144 173 203
350 355 357 351 354 357 358 353 357 360 357 2 6 6 6 3 10 1 332 236 209 205 208 201 202 204 196 197 206 194 196 196 189 180 179 188 158 172 141 148 178 165 154
355 350 352 350 348 352 358 355 348 349 355 355 354 359 359 358 10 9 1 294 215 218 214 205 198 193 194 175 174 188 193 200 192 186 190 179 152 154 154 148 150 109 88
357 350 347 344 340 344 351 347 343 340 343 350 350 352 355 353 2 13 14 6 355 329 283 248 211 194 197 190 178 188 189 200 181 163 149 153 152 154 142 125 135 139 168
348 341 336 335 334 333 339 337 332 332 333 337 342 351 354 350 350 11 17 5 8 358 349 323 263 234 210 198 188 183 192 191 165 136 133 134 142 155 159 114 152 146 126
325 324 322 327 324 323 329 326 328 328 332 338 338 340 354 355 345 360 7 10 7 2 3 355 337 305 255 220 200 192 195 154 172 154 136 128 132 143 143 131 139 136 142
338 323 314 314 319 322 326 322 325 328 330 334 336 336 349 347 347 352 359 1 1 355 350 339 330 317 279 243 219 204 190 155 157 157 155 155 159 160 147 122 101 87 57
307 302 301 311 314 318 318 318 322 327 325 330 334 330 336 343 336 350 348 352 349 347 338 335 337 329 304 251 228 204 172 162 164 169 173 173 170 141 122 104 84 83 72
281 277 285 298 312 314 313 315 318 316 321 323 326 324 324 330 333 337 340 337 338 338 338 332 327 324 291 269 198 189 161 171 175 176 173 148 125 143 151 149 141 142 112
288 285 277 287 298 307 312 312 310 313 302 301 313 313 318 317 318 320 324 324 324 323 327 324 326 335 323 285 191 151 152 155 166 148 151 153 156 158 161 161 150 143 143
302 300 303 305 304 307 310 309 309 313 318 313 311 308 307 305 310 310 312 315 314 321 322 318 308 316 328 311 247 169 162 167 159 149 153 161 164 168 160 159 168 161 152
285 297 296 299 298 301 308 308 313 317 314 312 313 310 312 305 309 315 310 309 314 317 304 309 311 314 331 334 318 224 182 181 162 161 160 166 163 167 162 173 180 160 153
282 276 280 286 283 285 291 296 301 300 306 305 301 307 309 317 315 313 312 317 335 325 309 301 303 315 330 336 331 337 243 175 176 170 167 167 166 167 168 182 181 169 160
282 273 265 277 277 274 281 279 278 285 286 285 299 302 307 314 317 314 323 334 311 312 313 313 314 321 322 326 329 329 329 261 184 178 174 172 173 165 180 179 171 170 152
258 260 263 262 267 265 274 273 276 273 278 282 284 279 291 295 286 281 275 279 285 290 291 294 301 309 316 318 322 324 322 332 241 187 181 180 177 178 176 173 173 172 176
251 263 264 272 268 266 257 256 264 271 273 275 278 281 283 285 302 270 285 280 274 275 274 275 285 290 295 301 307 312 312 317 327 275 182 184 180 182 179 173 172 174 174
250 261 252 257 270 267 263 258 260 261 266 271 279 279 293 299 280 272 267 268 268 265 265 265 271 269 274 281 291 296 297 301 317 325 308 186 185 186 178 171 171 172 172
237 249 258 258 254 264 267 260 260 258 262 263 270 280 278 263 251 250 254 255 257 266 263 244 256 260 255 258 263 267 279 291 329 350 336 330 201 185 180 178 176 174 172
247 251 260 265 264 259 260 266 262 259 261 266 265 266 270 268 262 256 251 250 244 247 252 253 246 249 256 250 256 260 272 284 291 300 320 316 322 213 185 184 181 179 174
233 246 248 255 256 259 263 260 261 261 261 260 264 262 265 266 271 271 263 249 242 240 247 247 253 254 249 243 245 254 260 271 278 278 283 285 289 303 222 188 181 176 172
239 240 250 254 254 251 249 260 260 257 256 256 255 257 259 260 262 265 268 262 251 242 242 240 240 243 254 254 241 240 253 258 254 256 251 243 256 264 270 194 182 175 174